KB9PMA-1 Weather Reports


time (UTC)temp
F
wind
direction
speed
knots
gust
knots
rain 1hr
in
rain 24hr
in
rain mn
in
humidity
%
barometer
mb
20260906075736 66 88 2.6 2.6 0.00 0.21 0.00 89 1018.6
20260906075236 67 87 0.9 2.6 0.00 0.21 0.00 89 1018.7
20260906074736 67 92 2.6 2.6 0.00 0.21 0.00 89 1018.6
20260906074236 67 85 2.6 2.6 0.00 0.21 0.00 88 1018.5
20260906073736 67 78 0.9 2.6 0.00 0.21 0.00 88 1018.5
20260906073236 67 91 1.7 2.6 0.00 0.21 0.00 88 1018.5
20260906072736 67 95 1.7 1.7 0.00 0.21 0.00 88 1018.4
20260906072236 67 135 0.0 2.6 0.00 0.21 0.00 88 1018.5
20260906071737 67 61 0.9 2.6 0.00 0.21 0.00 87 1018.4
20260906071237 67 102 1.7 2.6 0.00 0.21 0.00 87 1018.4
20260906070737 68 60 0.9 3.5 0.00 0.21 0.00 87 1018.4
20260906070237 68 111 0.0 2.6 0.00 0.21 0.00 87 1018.5
20260906065737 68 108 0.9 2.6 0.00 0.21 0.00 87 1018.3
20260906065237 68 84 1.7 3.5 0.00 0.21 0.00 87 1018.3
20260906064737 68 95 1.7 2.6 0.00 0.21 0.00 87 1018.3
20260906064237 68 53 0.9 3.5 0.00 0.21 0.00 87 1018.4
20260906063737 68 74 0.9 3.5 0.00 0.21 0.00 87 1018.4
20260906063237 69 74 1.7 2.6 0.00 0.21 0.00 86 1018.5
20260906062737 69 108 0.9 2.6 0.00 0.21 0.00 86 1018.4
20260906062237 69 50 0.9 3.5 0.00 0.21 0.00 86 1018.3
20260906061737 69 45 0.0 1.7 0.00 0.21 0.00 85 1018.4
20260906061237 69 99 0.9 1.7 0.00 0.21 0.00 84 1018.4
20260906060737 69 61 0.0 2.6 0.00 0.21 0.00 84 1018.4
20260906060237 69 45 0.0 2.6 0.00 0.21 0.00 84 1018.3
20260906055737 69 80 2.6 2.6 0.00 0.21 0.00 85 1018.2
20260906055237 70 95 1.7 2.6 0.00 0.22 0.00 85 1018.1
20260906054737 70 111 0.9 2.6 0.00 0.22 0.00 85 1018.1
20260906054237 70 39 0.0 1.7 0.00 0.22 0.00 85 1018.1
20260906053737 70 92 1.7 2.6 0.00 0.22 0.00 85 1018.1
20260906053237 70 125 0.9 2.6 0.00 0.22 0.00 86 1018.1
20260906052737 70 49 0.0 1.7 0.00 0.22 0.00 86 1018.1
20260906052237 70 84 0.9 1.7 0.00 0.22 0.00 86 1018.1
20260906051737 70 78 0.9 1.7 0.00 0.22 0.00 86 1018.0
20260906051237 70 92 0.9 1.7 0.00 0.22 0.00 87 1018.0
20260906050737 70 94 1.7 2.6 0.00 0.22 0.00 87 1017.9
20260906050237 70 101 1.7 3.5 0.00 0.22 0.00 87 1017.9
20260906045737 70 71 1.7 2.6 0.00 0.22 0.00 87 1017.9
20260906045237 70 97 1.7 2.6 0.00 0.22 0.00 87 1017.9
20260906044737 70 95 1.7 4.3 0.00 0.22 0.00 86 1017.9
20260906044237 70 101 2.6 2.6 0.00 0.22 0.00 87 1017.9
20260906043737 70 91 1.7 1.7 0.00 0.22 0.00 87 1017.9
20260906043237 70 54 0.0 1.7 0.00 0.22 0.00 88 1017.8
20260906042737 70 54 0.0 0.9 0.00 0.22 0.00 88 1017.8
20260906042237 70 37 0.0 1.7 0.00 0.22 0.00 88 1017.8
20260906041737 70 23 0.0 0.0 0.00 0.22 0.00 89 1017.7
20260906041237 70 23 0.0 0.0 0.00 0.22 0.00 89 1017.6
20260906040737 69 23 0.0 0.0 0.00 0.22 0.00 89 1017.6
20260906040237 69 23 0.0 1.7 0.00 0.22 0.00 89 1017.7
20260906035737 69 115 0.0 0.0 0.00 0.22 0.00 90 1017.7
20260906035237 70 115 0.0 0.0 0.00 0.22 0.22 90 1017.7
20260906034737 70 115 0.0 0.0 0.01 0.22 0.22 90 1017.5
20260906034237 70 115 0.0 0.0 0.01 0.22 0.22 90 1017.5
20260906033737 70 115 0.0 0.0 0.01 0.22 0.22 90 1017.4
20260906033237 70 115 0.0 0.0 0.01 0.22 0.22 90 1017.5
20260906032737 70 115 0.0 1.7 0.01 0.22 0.22 90 1017.5
20260906032237 70 88 0.9 2.6 0.01 0.22 0.22 90 1017.5
20260906031737 71 91 1.7 2.6 0.01 0.22 0.22 90 1017.5
20260906031237 71 94 1.7 3.5 0.01 0.22 0.22 90 1017.4
20260906030737 71 111 0.0 2.6 0.01 0.22 0.22 90 1017.4
20260906030237 71 77 1.7 3.5 0.01 0.22 0.22 90 1017.3
20260906025737 71 80 2.6 3.5 0.01 0.22 0.22 89 1017.3
20260906025237 71 95 1.7 3.5 0.01 0.22 0.22 90 1017.2
20260906024737 72 91 2.6 3.5 0.00 0.21 0.21 90 1017.1
20260906024237 72 112 2.6 3.5 0.00 0.21 0.21 90 1017.1
20260906023737 72 90 1.7 3.5 0.00 0.21 0.21 90 1017.1
20260906023237 72 88 0.9 2.6 0.00 0.21 0.21 90 1017.1
20260906022737 72 90 2.6 3.5 0.00 0.21 0.21 90 1017.0
20260906022237 72 105 2.6 4.3 0.00 0.21 0.21 90 1016.9
20260906021737 72 49 1.7 3.5 0.00 0.21 0.21 90 1016.9
20260906021237 73 99 2.6 3.5 0.00 0.21 0.21 89 1016.8
20260906020737 73 98 2.6 3.5 0.00 0.21 0.21 89 1016.9
20260906020237 73 95 0.0 3.5 0.00 0.21 0.21 89 1016.8
20260906015737 73 111 2.6 4.3 0.00 0.21 0.21 89 1016.8
20260906015237 73 123 3.5 5.2 0.00 0.21 0.21 89 1016.7
20260906014737 73 78 3.5 5.2 0.00 0.21 0.21 89 1016.8
20260906014237 73 80 2.6 5.2 0.00 0.21 0.21 89 1016.7
20260906013737 73 106 3.5 3.5 0.00 0.21 0.21 89 1016.6
20260906013237 74 119 2.6 4.3 0.00 0.21 0.21 89 1016.4
20260906012737 74 104 1.7 6.1 0.00 0.21 0.21 89 1016.4
20260906012237 74 68 1.7 3.5 0.00 0.21 0.21 89 1016.2
20260906011737 74 57 1.7 4.3 0.00 0.21 0.21 90 1016.1
20260906011237 74 92 3.5 6.1 0.00 0.21 0.21 89 1016.0
20260906010737 74 109 1.7 6.1 0.00 0.21 0.21 89 1015.9
20260906010237 75 78 1.7 4.3 0.00 0.21 0.21 89 1015.7
20260906005737 75 88 2.6 3.5 0.00 0.21 0.21 89 1015.6
20260906005237 75 77 2.6 3.5 0.01 0.21 0.21 89 1015.5
20260906004737 75 97 2.6 4.3 0.02 0.21 0.21 89 1015.5
20260906004237 75 90 1.7 4.3 0.06 0.21 0.21 88 1015.6
20260906003737 76 85 2.6 4.3 0.07 0.21 0.21 88 1015.6
20260906003237 76 88 4.3 6.1 0.07 0.21 0.21 88 1015.6
20260906002737 76 92 1.7 3.5 0.07 0.21 0.21 89 1015.6
20260906002237 76 88 2.6 3.5 0.07 0.21 0.21 89 1015.5
20260906001737 76 95 2.6 5.2 0.07 0.21 0.21 88 1015.1
20260906001237 77 189 0.0 2.6 0.07 0.21 0.21 88 1015.2
20260906000737 77 104 0.9 3.5 0.07 0.21 0.21 87 1015.2
20260906000237 77 70 2.6 5.2 0.07 0.21 0.21 87 1015.2
20260906000039 78 94 1.7 4.3 0.07 0.21 0.21 86 1015.2
20260905235737 78 94 1.7 4.3 0.07 0.21 0.21 86 1015.2
20260905235237 78 90 2.6 4.3 0.06 0.20 0.20 86 1015.1
20260905234737 79 84 3.5 5.2 0.05 0.19 0.19 84 1015.0
20260905234237 79 46 3.5 4.3 0.01 0.15 0.15 82 1015.2
20260905233737 80 92 2.6 4.3 0.00 0.14 0.14 81 1015.0
20260905233237 80 102 3.5 4.3 0.00 0.14 0.14 80 1014.7
20260905232737 80 130 0.9 5.2 0.00 0.14 0.14 80 1014.7
20260905232237 80 95 3.5 4.3 0.00 0.14 0.14 79 1014.7
20260905231737 80 98 3.5 5.2 0.00 0.14 0.14 79 1014.8
20260905231237 80 92 3.5 3.5 0.00 0.14 0.14 80 1014.8
20260905230738 80 108 0.9 3.5 0.00 0.14 0.14 79 1014.8
20260905230237 81 104 1.7 2.6 0.00 0.14 0.14 79 1014.7
20260905225738 81 68 0.9 2.6 0.00 0.14 0.14 77 1014.7
20260905225238 82 175 0.9 2.6 0.00 0.14 0.14 76 1014.7
20260905224738 82 61 1.7 3.5 0.00 0.14 0.14 75 1014.7
20260905224238 83 60 2.6 4.3 0.00 0.14 0.14 74 1014.7
20260905223738 83 88 2.6 3.5 0.00 0.14 0.14 74 1014.7
20260905223238 83 22 0.0 2.6 0.00 0.14 0.14 74 1014.6
20260905222738 83 42 0.0 0.9 0.00 0.14 0.14 74 1014.5
20260905222238 83 82 0.0 2.6 0.00 0.14 0.14 73 1014.4
20260905221738 83 59 0.9 3.5 0.00 0.14 0.14 74 1014.5
20260905221238 83 66 2.6 2.6 0.00 0.14 0.14 74 1014.5
20260905220738 83 46 0.0 4.3 0.00 0.14 0.14 74 1014.5
20260905220238 83 59 1.7 2.6 0.00 0.14 0.14 75 1014.4
20260905215738 84 64 0.9 2.6 0.00 0.14 0.14 71 1014.3
20260905215238 84 4 0.0 2.6 0.00 0.14 0.14 72 1014.1
20260905214738 84 47 1.7 2.6 0.00 0.14 0.14 71 1014.0
20260905214238 84 42 0.0 3.5 0.00 0.14 0.14 71 1013.9
20260905213738 84 180 1.7 3.5 0.00 0.14 0.14 70 1013.9
20260905213238 85 147 0.9 3.5 0.00 0.14 0.14 70 1014.1
20260905212738 85 57 0.0 4.3 0.00 0.14 0.14 70 1014.2
20260905212238 86 358 0.9 2.6 0.00 0.14 0.14 68 1014.2
20260905211738 86 28 0.9 2.6 0.00 0.14 0.14 68 1014.1
20260905211238 86 78 0.0 2.6 0.00 0.14 0.14 66 1014.1
20260905210738 86 22 1.7 4.3 0.00 0.14 0.14 66 1014.0
20260905210238 86 310 0.9 2.6 0.00 0.14 0.14 66 1014.2
20260905205738 86 16 0.9 1.7 0.00 0.14 0.14 65 1014.2
20260905205238 87 12 0.0 1.7 0.00 0.14 0.14 65 1014.3
20260905204738 87 326 0.9 2.6 0.00 0.14 0.14 64 1014.3
20260905204238 87 300 1.7 2.6 0.00 0.14 0.14 65 1014.3
20260905203738 87 36 0.0 4.3 0.00 0.14 0.14 66 1014.3
20260905203238 87 40 0.9 2.6 0.00 0.14 0.14 65 1014.4
20260905202738 87 75 0.0 1.7 0.00 0.14 0.14 66 1014.5
20260905202238 87 42 0.0 2.6 0.00 0.14 0.14 65 1014.5
20260905201738 87 320 0.9 1.7 0.00 0.14 0.14 64 1014.5
20260905201238 87 315 0.0 4.3 0.00 0.14 0.14 64 1014.6
20260905200738 87 345 0.9 1.7 0.00 0.14 0.14 65 1014.6
20260905200238 86 30 0.9 3.5 0.00 0.14 0.14 66 1014.7
20260905195738 86 350 0.0 1.7 0.00 0.14 0.14 66 1014.8
20260905195238 86 1 0.0 0.9 0.00 0.14 0.14 66 1014.8
20260905194738 87 23 0.0 2.6 0.00 0.14 0.14 66 1015.0
20260905194238 87 313 0.0 1.7 0.00 0.14 0.14 64 1014.9
20260905193738 87 37 0.0 1.7 0.00 0.14 0.14 65 1014.9
20260905193238 88 7 0.0 1.7 0.00 0.14 0.14 62 1014.9
20260905192738 88 28 0.0 5.2 0.00 0.14 0.14 60 1014.9
20260905192238 88 16 0.0 5.2 0.00 0.14 0.14 62 1014.9
20260905191738 88 23 2.6 2.6 0.00 0.14 0.14 61 1014.9
20260905191238 88 344 0.0 2.6 0.00 0.14 0.14 61 1015.0
20260905190738 87 358 0.0 3.5 0.00 0.14 0.14 62 1015.2
20260905190238 87 217 3.5 4.3 0.00 0.14 0.14 62 1015.2
20260905185738 87 255 0.0 6.1 0.00 0.14 0.14 61 1015.2
20260905185238 87 315 0.9 7.0 0.00 0.14 0.14 62 1015.3
20260905184738 86 227 0.9 3.5 0.00 0.14 0.14 63 1015.3
20260905184238 86 102 0.9 2.6 0.00 0.14 0.14 64 1015.4
20260905183738 86 312 0.9 5.2 0.00 0.14 0.14 63 1015.4
20260905183238 86 220 3.5 5.2 0.00 0.14 0.14 63 1015.4
20260905182738 86 253 1.7 3.5 0.01 0.14 0.14 65 1015.4
20260905182238 86 317 2.6 6.1 0.01 0.14 0.14 66 1015.5
20260905181738 85 241 0.0 3.5 0.01 0.14 0.14 69 1015.6
20260905181238 84 132 0.0 5.2 0.01 0.14 0.14 67 1015.6
20260905180738 84 286 2.6 7.0 0.01 0.14 0.14 68 1015.7
20260905180238 83 310 3.5 6.1 0.01 0.14 0.14 68 1015.8
20260905175738 82 160 0.0 1.7 0.01 0.14 0.14 75 1015.8
20260905175238 81 319 0.9 3.5 0.01 0.14 0.14 76 1015.9
20260905174738 81 282 1.7 1.7 0.01 0.14 0.14 78 1016.0
20260905174238 81 8 0.0 0.0 0.01 0.14 0.14 79 1016.1
20260905173738 81 8 0.0 0.9 0.01 0.14 0.14 77 1016.2
20260905173238 81 26 0.0 3.5 0.01 0.14 0.14 75 1016.5
20260905172738 82 302 2.6 6.1 0.00 0.13 0.13 72 1016.2
20260905172238 82 277 0.9 5.2 0.00 0.13 0.13 71 1016.4
20260905171738 82 292 3.5 7.8 0.00 0.13 0.13 70 1016.4
20260905171238 82 317 2.6 5.2 0.00 0.13 0.13 72 1016.4
20260905170738 81 189 2.6 6.1 0.00 0.13 0.13 71 1016.4
20260905170238 81 40 0.0 3.5 0.00 0.13 0.13 74 1016.5
20260905165738 80 35 0.9 3.5 0.00 0.13 0.13 75 1016.5
20260905165238 80 212 0.0 3.5 0.00 0.13 0.13 77 1016.7
20260905164738 80 282 0.0 4.3 0.00 0.13 0.13 75 1016.7
20260905164238 80 109 0.9 6.1 0.00 0.13 0.13 72 1016.8
20260905163738 80 279 2.6 6.1 0.00 0.13 0.13 74 1016.8
20260905163238 79 330 0.9 7.0 0.00 0.13 0.13 81 1016.8
20260905162738 79 316 1.7 4.3 0.00 0.13 0.13 80 1016.9
20260905162238 78 198 0.9 3.5 0.00 0.13 0.13 81 1016.9
20260905161738 78 226 0.0 6.1 0.00 0.13 0.13 84 1017.0
20260905161238 77 172 3.5 3.5 0.00 0.13 0.13 83 1017.0
20260905160738 77 81 0.0 2.6 0.00 0.13 0.13 84 1017.1
20260905160238 76 129 1.7 3.5 0.00 0.13 0.13 87 1017.2
20260905155738 75 151 0.0 0.0 0.00 0.13 0.13 91 1017.2
20260905155238 74 151 0.0 0.0 0.00 0.13 0.13 91 1017.1
20260905154738 74 151 0.0 0.0 0.00 0.13 0.13 90 1017.2
20260905154238 74 151 0.0 0.0 0.06 0.13 0.13 90 1017.1
20260905153738 74 151 0.0 0.0 0.07 0.13 0.13 91 1017.2
20260905153238 73 151 0.0 2.6 0.07 0.13 0.13 92 1017.2
20260905152738 73 216 1.7 3.5 0.07 0.13 0.13 92 1017.3
20260905152238 72 188 0.0 0.0 0.07 0.13 0.13 93 1017.4
20260905151738 72 188 0.0 0.0 0.07 0.13 0.13 93 1017.5
20260905151238 72 188 0.0 0.0 0.07 0.13 0.13 93 1017.4
20260905150738 71 158 0.0 0.0 0.07 0.13 0.13 92 1017.3
20260905150238 71 158 0.0 0.9 0.07 0.13 0.13 92 1017.3
20260905145738 71 163 0.0 0.0 0.07 0.13 0.13 92 1017.2
20260905145238 72 163 0.0 1.7 0.07 0.13 0.13 91 1017.1
20260905144738 72 174 1.7 2.6 0.07 0.13 0.13 90 1017.0
20260905144238 72 16 0.0 0.0 0.01 0.07 0.07 89 1017.3
20260905143738 72 16 0.0 0.9 0.00 0.06 0.06 89 1017.0
20260905143238 72 45 0.0 0.0 0.00 0.06 0.06 89 1016.9
20260905142738 72 188 0.0 1.7 0.00 0.06 0.06 89 1016.7
20260905142238 72 212 0.0 2.6 0.00 0.06 0.06 88 1016.9
20260905141739 72 45 0.0 1.7 0.00 0.06 0.06 88 1017.1
20260905141239 72 28 0.0 3.5 0.00 0.06 0.06 87 1017.0
20260905140739 72 32 0.0 1.7 0.00 0.06 0.06 88 1016.5
20260905140239 72 45 0.0 2.6 0.00 0.06 0.06 90 1016.4
20260905135739 71 272 0.0 0.9 0.00 0.06 0.06 91 1016.2
20260905135239 71 146 0.9 2.6 0.00 0.06 0.06 91 1016.4
20260905134739 71 67 0.0 1.7 0.00 0.06 0.06 91 1016.4
20260905134239 71 129 0.0 3.5 0.00 0.06 0.06 91 1016.4
20260905133739 71 192 0.9 3.5 0.00 0.06 0.06 92 1016.2
20260905133239 71 108 0.9 3.5 0.00 0.06 0.06 92 1016.2
20260905132739 70 99 0.9 1.7 0.00 0.06 0.06 93 1016.2
20260905132239 70 168 0.0 4.3 0.00 0.06 0.06 93 1016.4
20260905131739 70 203 0.0 4.3 0.00 0.06 0.06 94 1016.4
20260905131239 70 206 1.7 5.2 0.00 0.06 0.06 94 1016.4
20260905130739 70 12 0.0 4.3 0.00 0.06 0.06 94 1016.2
20260905130239 69 154 0.0 4.3 0.00 0.06 0.06 95 1016.0
20260905125739 69 178 0.0 7.0 0.00 0.06 0.06 95 1016.1
20260905125239 69 184 0.0 0.9 0.00 0.06 0.06 95 1016.4
20260905124739 69 195 0.9 4.3 0.00 0.06 0.06 95 1016.5
20260905124239 69 194 0.0 2.6 0.00 0.06 0.06 95 1016.6
20260905123739 69 187 1.7 3.5 0.00 0.06 0.06 95 1016.8
20260905123239 68 198 0.9 3.5 0.00 0.06 0.06 95 1016.8
20260905122739 68 203 0.0 5.2 0.00 0.06 0.06 95 1016.8
20260905122239 68 167 1.7 3.5 0.00 0.06 0.06 95 1016.8
20260905121739 68 116 0.0 3.5 0.00 0.06 0.06 95 1016.9
20260905121239 68 116 0.0 0.9 0.00 0.06 0.06 95 1016.8
20260905120739 68 109 0.0 1.7 0.00 0.06 0.06 95 1016.7
20260905120239 68 50 0.0 0.0 0.00 0.06 0.06 94 1016.6
20260905115739 68 50 0.0 2.6 0.00 0.06 0.06 94 1016.6
20260905115239 68 187 0.0 0.0 0.00 0.06 0.06 94 1016.6
20260905114739 68 132 0.0 0.0 0.00 0.06 0.06 94 1016.7
20260905114239 68 171 0.0 1.7 0.00 0.06 0.06 94 1016.8
20260905113739 68 130 0.0 0.0 0.00 0.06 0.06 94 1016.7
20260905113239 68 130 0.0 0.0 0.00 0.06 0.06 94 1016.7
20260905112739 68 130 0.0 0.9 0.00 0.06 0.06 94 1016.8
20260905112239 69 108 0.0 1.7 0.00 0.06 0.06 94 1016.7
20260905111739 69 170 0.0 0.0 0.00 0.06 0.06 94 1016.7
20260905111239 69 170 0.0 3.5 0.01 0.06 0.06 93 1016.7
20260905110739 69 135 0.0 4.3 0.02 0.06 0.06 93 1016.5
20260905110239 69 191 0.9 1.7 0.05 0.06 0.06 93 1016.7
20260905105739 69 63 0.0 3.5 0.05 0.06 0.06 93 1016.7
20260905105239 69 66 2.6 3.5 0.05 0.06 0.06 93 1016.6
20260905104739 69 171 0.9 2.6 0.05 0.06 0.06 93 1016.7
20260905104239 69 146 0.0 3.5 0.05 0.06 0.06 93 1016.6
20260905103739 69 108 0.0 0.9 0.05 0.06 0.06 92 1016.6
20260905103239 69 184 0.0 4.3 0.05 0.06 0.06 92 1016.8
20260905102739 70 90 0.9 4.3 0.05 0.06 0.06 92 1016.7
20260905102239 70 164 0.9 3.5 0.05 0.06 0.06 91 1016.7
20260905101739 70 32 0.9 2.6 0.05 0.06 0.06 90 1016.9
20260905101239 70 106 0.0 3.5 0.04 0.05 0.05 89 1017.2
20260905100739 70 118 0.9 5.2 0.03 0.04 0.04 89 1016.7
20260905100239 70 108 0.9 4.3 0.00 0.01 0.01 89 1016.8
20260905095739 70 177 0.9 5.2 0.00 0.01 0.01 88 1016.9
20260905095239 70 161 0.9 2.6 0.00 0.01 0.01 88 1017.3
20260905094739 70 337 0.9 0.9 0.00 0.01 0.01 88 1017.5
20260905094239 70 113 0.0 4.3 0.00 0.01 0.01 87 1017.3
20260905093739 70 87 1.7 7.0 0.00 0.01 0.01 87 1017.1
20260905093239 70 85 2.6 3.5 0.00 0.01 0.01 87 1016.9
20260905092739 71 127 0.9 3.5 0.00 0.01 0.01 86 1016.9
20260905092239 71 87 2.6 5.2 0.00 0.01 0.01 85 1016.9
20260905091739 71 171 0.0 3.5 0.00 0.01 0.01 85 1017.2
20260905091239 71 142 1.7 4.3 0.00 0.01 0.01 84 1017.3
20260905090739 71 101 2.6 5.2 0.00 0.01 0.01 84 1017.2
20260905090239 72 180 2.6 6.1 0.00 0.01 0.01 84 1016.9
20260905085739 72 73 0.9 6.1 0.00 0.01 0.01 83 1016.9
20260905085239 72 106 4.3 6.1 0.00 0.01 0.01 85 1016.9
20260905084739 73 160 2.6 7.8 0.00 0.01 0.01 88 1016.7
20260905084239 74 125 3.5 8.7 0.00 0.01 0.01 91 1016.5
20260905083739 74 177 1.7 4.3 0.00 0.01 0.01 94 1016.5
20260905083239 74 208 0.0 0.0 0.00 0.01 0.01 94 1016.0
20260905082739 74 208 0.0 0.0 0.00 0.01 0.01 93 1015.8
20260905082239 74 208 0.0 0.0 0.00 0.01 0.01 94 1015.9
20260905081739 74 208 0.0 0.0 0.00 0.01 0.01 94 1015.8
20260905081239 74 208 0.0 0.0 0.00 0.01 0.01 94 1015.7
20260905080739 74 208 0.0 0.0 0.00 0.01 0.01 94 1015.6
20260905080239 74 208 0.0 0.0 0.00 0.01 0.01 94 1015.4